Satellite-Ground Cal/Val Region Overpasses Predictions

Prediction of Satellite NPP Overpassing Cal/Val Region: PacNW

Region Location: (Latitude: 10.00, Longitude: 139.50) to (Latitude: 22.70, Longitude: 165.60).

Table of predicted overpasses for the next 14.0 days since TLE Epoch: 6/12/2020
Interval Starting Time Starting Location Ending Time Ending Location
1 06/13/2020 02:14:21 ( 13.06, 165.59) 06/13/2020 02:17:05 ( 22.69, 163.28)
2 06/13/2020 03:54:59 ( 10.01, 140.92) 06/13/2020 03:56:42 ( 16.06, 139.51)
3 06/13/2020 14:45:23 ( 22.65, 163.52) 06/13/2020 14:48:58 ( 10.03, 160.52)
4 06/14/2020 03:35:58 ( 10.05, 145.67) 06/14/2020 03:39:33 ( 22.68, 142.66)
5 06/14/2020 14:29:33 ( 11.40, 165.59) 06/14/2020 14:29:56 ( 10.05, 165.28)
6 06/14/2020 16:07:51 ( 22.66, 142.91) 06/14/2020 16:11:26 ( 10.04, 139.91)
7 06/15/2020 03:16:55 ( 10.04, 150.43) 06/15/2020 03:20:30 ( 22.66, 147.43)
8 06/15/2020 15:48:48 ( 22.68, 147.68) 06/15/2020 15:52:23 ( 10.06, 144.67)
9 06/16/2020 02:57:53 ( 10.02, 155.20) 06/16/2020 03:01:29 ( 22.70, 152.18)
10 06/16/2020 15:29:46 ( 22.69, 152.44) 06/16/2020 15:33:22 ( 10.02, 149.42)
11 06/17/2020 02:38:51 ( 10.00, 159.96) 06/17/2020 02:42:27 ( 22.68, 156.94)
12 06/17/2020 15:10:44 ( 22.65, 157.19) 06/17/2020 15:14:19 ( 10.03, 154.18)
13 06/18/2020 02:19:49 ( 10.04, 164.71) 06/18/2020 02:23:24 ( 22.67, 161.71)
14 06/18/2020 14:51:42 ( 22.67, 161.95) 06/18/2020 14:55:17 ( 10.05, 158.95)
15 06/19/2020 03:42:17 ( 10.04, 144.10) 06/19/2020 03:45:52 ( 22.66, 141.09)
16 06/19/2020 14:33:57 ( 18.11, 165.59) 06/19/2020 14:36:15 ( 10.01, 163.70)
17 06/19/2020 16:14:09 ( 22.68, 141.34) 06/19/2020 16:16:18 ( 15.11, 139.51)
18 06/20/2020 03:23:14 ( 10.02, 148.86) 06/20/2020 03:26:50 ( 22.70, 145.84)
19 06/20/2020 15:55:07 ( 22.70, 146.10) 06/20/2020 15:58:43 ( 10.02, 143.09)
20 06/21/2020 03:04:12 ( 10.00, 153.62) 06/21/2020 03:07:48 ( 22.68, 150.61)
21 06/21/2020 15:36:05 ( 22.65, 150.85) 06/21/2020 15:39:40 ( 10.03, 147.85)
22 06/22/2020 02:45:10 ( 10.05, 158.37) 06/22/2020 02:48:45 ( 22.67, 155.37)
23 06/22/2020 15:17:03 ( 22.67, 155.62) 06/22/2020 15:20:38 ( 10.05, 152.61)
24 06/23/2020 02:26:08 ( 10.03, 163.14) 06/23/2020 02:29:43 ( 22.65, 160.13)
25 06/23/2020 14:58:01 ( 22.68, 160.38) 06/23/2020 15:01:37 ( 10.00, 157.36)
26 06/24/2020 02:09:52 ( 19.82, 165.59) 06/24/2020 02:10:41 ( 22.70, 164.88)
27 06/24/2020 03:48:35 ( 10.02, 142.52) 06/24/2020 03:52:10 ( 22.65, 139.52)
28 06/24/2020 14:38:58 ( 22.70, 165.14) 06/24/2020 14:42:34 ( 10.02, 162.13)
29 06/24/2020 16:20:28 ( 22.69, 139.77) 06/24/2020 16:20:46 ( 21.64, 139.50)
30 06/25/2020 03:29:33 ( 10.01, 147.29) 06/25/2020 03:33:09 ( 22.69, 144.27)
31 06/25/2020 16:01:27 ( 22.65, 144.52) 06/25/2020 16:05:02 ( 10.03, 141.51)
32 06/26/2020 03:10:31 ( 10.06, 152.04) 06/26/2020 03:14:06 ( 22.68, 149.03)


NCC Satellite Cal/Val Overpasses Prediction Service
